Total_Precipitation_Accumulation
1.69 1.57 1.50 1.36 1.28 1.27 1.31 1.50 1.78 1.51 0.89 0.62 0.66 0.70 0.77 0.85 0.99 1.01 1.02 1.19 1.27 1.31 1.33 1.41 1.55 1.66 1.85 2.13 2.77 3.58 4.17 4.55 4.57 4.37 4.20 4.25 4.61 5.03
1.87 1.85 1.75 1.61 1.54 1.47 1.44 1.47 1.68 1.91 1.47 0.75 0.70 0.77 0.85 0.89 1.02 0.99 0.99 1.16 1.19 1.28 1.36 1.39 1.48 1.58 1.70 1.86 2.15 2.73 3.48 4.01 4.39 4.62 4.67 4.69 4.80 5.06
1.80 1.81 1.78 1.72 1.73 1.69 1.65 1.61 1.62 1.82 1.80 1.00 0.72 0.76 0.90 0.96 0.98 0.95 0.97 1.04 1.08 1.21 1.33 1.40 1.46 1.53 1.61 1.74 1.92 2.22 2.81 3.44 3.92 4.44 4.84 4.95 4.96 5.00
1.71 1.73 1.72 1.72 1.76 1.75 1.78 1.74 1.68 1.70 1.81 1.43 0.97 0.91 0.96 1.00 1.03 1.04 0.99 0.99 1.01 1.16 1.31 1.43 1.47 1.52 1.58 1.65 1.78 1.98 2.32 2.89 3.41 3.79 4.28 4.60 4.72 4.96
1.58 1.62 1.64 1.69 1.74 1.72 1.74 1.74 1.68 1.61 1.65 1.64 1.24 1.02 1.05 1.08 1.15 1.18 1.15 1.14 1.10 1.18 1.26 1.38 1.49 1.51 1.58 1.65 1.70 1.79 1.94 2.23 2.74 3.36 3.91 4.34 4.47 4.55
1.41 1.49 1.56 1.66 1.71 1.79 1.91 1.84 1.77 1.84 1.83 1.83 1.56 1.26 1.17 1.14 1.30 1.39 1.39 1.30 1.23 1.15 1.23 1.27 1.40 1.51 1.52 1.53 1.55 1.60 1.75 2.04 2.47 3.03 3.50 3.96 4.24 4.25
1.31 1.33 1.37 1.61 1.86 2.09 2.23 2.17 2.16 2.27 2.22 2.19 1.93 1.58 1.38 1.36 1.42 1.39 1.48 1.39 1.34 1.27 1.24 1.16 1.16 1.17 1.25 1.39 1.48 1.54 1.66 1.85 2.12 2.53 3.03 3.49 3.90 4.17
1.38 1.33 1.33 1.46 1.59 1.81 2.06 2.15 2.23 2.38 2.47 2.44 2.26 1.94 1.53 1.38 1.43 1.59 1.75 1.81 1.68 1.27 1.25 1.25 1.22 1.31 1.27 1.26 1.45 1.55 1.60 1.73 1.97 2.25 2.60 2.95 3.33 3.79
1.30 1.24 1.26 1.27 1.39 1.29 1.46 1.61 1.69 1.91 2.18 2.36 2.41 1.96 1.63 1.49 1.74 2.00 2.01 1.99 1.74 1.47 1.57 1.70 1.46 1.46 1.36 1.42 1.64 1.58 1.65 1.78 1.92 2.10 2.36 2.67 2.95 3.31
1.25 1.23 1.23 1.20 1.25 1.38 1.45 1.46 1.34 1.36 1.61 1.85 2.00 1.84 1.73 1.76 2.03 2.38 2.54 2.58 2.17 1.77 1.81 2.12 1.69 1.52 1.42 1.43 1.66 1.63 1.63 1.75 1.89 2.05 2.21 2.38 2.62 2.94
1.25 1.38 1.43 1.32 1.44 1.70 1.78 1.72 1.46 1.27 1.37 1.71 1.99 2.05 2.14 2.36 2.59 3.00 3.32 3.45 3.07 2.25 1.91 2.15 1.89 1.64 1.56 1.52 1.59 1.71 1.69 1.73 1.80 1.94 2.13 2.27 2.45 2.71
1.29 1.43 1.78 1.72 1.76 1.86 1.84 1.88 1.83 1.46 1.32 1.38 1.48 1.59 1.61 1.73 2.17 2.47 2.79 3.21 3.18 2.79 2.08 2.10 2.09 2.07 2.24 1.76 1.49 1.45 1.53 1.73 1.82 1.86 2.01 2.19 2.42 2.44
1.47 1.50 1.63 1.80 1.81 1.86 1.93 1.89 1.97 1.87 1.76 1.72 1.63 1.53 1.53 1.65 1.82 2.05 2.32 2.73 3.08 2.86 2.20 2.39 2.57 2.40 2.50 2.11 1.65 1.51 1.44 1.47 1.56 1.74 1.95 2.16 2.34 2.45
1.51 1.39 1.49 1.74 1.80 1.84 1.81 1.88 2.03 2.05 1.89 1.84 1.74 1.62 1.54 1.57 1.61 1.75 2.01 2.21 2.42 2.51 2.25 2.50 2.95 2.71 2.71 2.35 1.85 1.68 1.58 1.52 1.49 1.60 1.73 2.10 2.27 2.41
1.49 1.70 1.71 1.72 1.67 1.59 1.63 1.73 1.74 1.69 1.76 1.77 1.61 1.42 1.31 1.32 1.43 1.62 1.82 2.01 2.17 2.23 2.26 2.29 2.50 2.58 2.82 2.73 2.07 1.73 1.74 1.75 1.65 1.64 1.72 1.83 1.94 2.09
1.50 1.62 1.63 1.51 1.41 1.39 1.47 1.49 1.46 1.55 1.72 1.76 1.59 1.41 1.31 1.37 1.48 1.57 1.77 1.93 2.22 2.26 2.16 2.19 2.33 2.67 2.93 2.54 2.28 2.00 1.75 1.94 1.88 1.78 1.78 1.81 1.83 1.85
1.74 1.71 1.58 1.43 1.36 1.28 1.25 1.23 1.26 1.43 1.60 1.59 1.63 1.62 1.54 1.52 1.54 1.55 1.73 1.90 2.11 2.05 2.03 2.14 2.32 2.58 2.83 2.81 2.71 2.23 1.89 1.84 1.89 1.92 1.90 1.94 1.91 1.86
1.76 1.67 1.44 1.31 1.26 1.21 1.21 1.23 1.21 1.26 1.33 1.44 1.57 1.64 1.65 1.63 1.62 1.61 1.75 1.93 1.99 1.88 1.89 2.02 2.36 2.85 3.15 3.12 2.73 2.36 2.07 1.95 2.00 2.08 2.00 2.00 1.96 1.79
1.49 1.36 1.25 1.23 1.22 1.19 1.21 1.23 1.22 1.16 1.23 1.39 1.53 1.62 1.68 1.72 1.69 1.69 1.73 1.83 1.87 1.82 1.85 1.98 2.35 2.96 3.22 2.92 2.66 2.33 2.18 2.05 2.09 2.27 2.19 1.95 1.86 1.72
1.24 1.26 1.23 1.20 1.19 1.21 1.23 1.25 1.23 1.20 1.26 1.35 1.42 1.48 1.57 1.70 1.72 1.62 1.60 1.73 1.81 1.84 1.90 2.01 2.28 2.71 3.08 2.75 2.55 2.45 2.28 2.23 2.28 2.43 2.28 1.97 1.84 1.87
1.16 1.19 1.19 1.23 1.24 1.22 1.20 1.22 1.26 1.29 1.26 1.30 1.33 1.34 1.41 1.59 1.63 1.51 1.52 1.65 1.86 1.96 1.96 1.91 2.05 2.37 2.71 2.89 2.83 2.52 2.42 2.39 2.34 2.49 2.43 2.33 2.17 2.02
1.13 1.18 1.16 1.18 1.24 1.27 1.26 1.26 1.29 1.28 1.26 1.28 1.27 1.28 1.33 1.49 1.57 1.50 1.55 1.66 1.73 1.79 1.84 1.86 1.96 2.32 2.80 3.05 2.78 2.43 2.40 2.46 2.53 2.46 2.43 2.45 2.63 2.57
1.25 1.22 1.15 1.12 1.15 1.21 1.27 1.28 1.29 1.25 1.21 1.28 1.31 1.31 1.35 1.46 1.46 1.52 1.56 1.61 1.69 1.73 1.79 1.95 2.09 2.32 2.57 2.59 2.59 2.47 2.31 2.29 2.36 2.45 2.64 2.38 1.99 1.86